Location: Calvatone
(45.1167°N, 10.4333°E)
Time: 19:21:04
(UTC+00:00)

Star 26B S/N 006 - Visible Passes

Search period start: 26 May 2024 00:00
Search period end: 05 June 2024 00:00
Orbit: 761 x 852 km, 99.0° (Epoch: 26 May)

Date Brightness Start Highest point End Pass type
(mag) Time Alt. Az. Time Alt. Az. Time Alt. Az.
26 May 6.2 00:34:56 10° NNE 00:40:29 74° ESE 00:42:35 39° S visible
26 May 8.0 02:15:52 10° NNW 02:19:38 19° WNW 02:23:24 10° WSW visible
27 May 6.8 00:10:19 10° NNE 00:15:38 46° E 00:17:32 33° SSE visible
27 May 7.4 01:50:29 10° N 01:55:10 29° WNW 01:58:36 16° WSW visible
27 May 7.5 23:45:57 10° NE 23:50:43 29° E 23:52:29 24° SE visible
28 May 6.8 01:25:22 10° N 01:30:36 44° WNW 01:33:33 24° SW visible
28 May 8.1 23:22:01 10° NE 23:25:40 18° E 23:27:26 15° ESE visible
29 May 6.3 01:00:25 10° N 01:05:56 70° WNW 01:08:30 32° SSW visible
29 May 8.3 02:42:32 10° NNW 02:44:43 12° NW 02:46:53 10° WNW visible
29 May 8.5 22:59:51 10° ENE 23:00:31 10° E 23:01:11 10° E visible
30 May 6.2 00:35:38 10° NNE 00:41:12 74° ESE 00:43:27 37° S visible
30 May 8.0 02:16:34 10° NNW 02:20:20 19° WNW 02:24:05 10° WSW visible
31 May 6.8 00:11:01 10° NNE 00:16:21 46° E 00:18:24 32° SSE visible
31 May 7.4 01:51:11 10° N 01:55:52 29° WNW 01:59:27 15° WSW visible
31 May 7.5 23:46:39 10° NE 23:51:24 29° E 23:53:20 23° SE visible
01 Jun 6.8 01:26:03 10° N 01:31:18 44° WNW 01:34:24 23° SW visible
01 Jun 8.1 23:22:43 10° NE 23:26:21 18° E 23:28:16 15° ESE visible
02 Jun 6.3 01:01:07 10° N 01:06:38 70° WNW 01:09:20 31° SSW visible
02 Jun 8.3 02:43:15 10° NNW 02:45:24 12° NW 02:47:33 10° WNW visible
02 Jun 8.5 23:00:38 10° E 23:01:12 10° E 23:01:46 10° E visible
03 Jun 6.2 00:36:20 10° NNE 00:41:53 74° ESE 00:44:16 35° S visible
03 Jun 8.0 02:17:16 10° NNW 02:21:01 19° WNW 02:24:45 10° W visible
04 Jun 6.8 00:11:43 10° NNE 00:17:02 46° E 00:19:11 31° SSE visible
04 Jun 7.4 01:51:54 10° N 01:56:33 29° WNW 02:00:15 14° WSW visible
04 Jun 7.5 23:47:21 10° NE 23:52:05 28° E 23:54:07 23° SE visible
